Temperature
22 21 21 21 21 21 22 22 23 22 22 21 21 20 20 19 19 19 19 19 19 19 19 18 18 18 18 18 18 18 17 17 17 17 18 18 18 18 18 18 18 18 18
21 20 20 20 20 20 20 21 21 22 22 21 21 20 20 19 19 19 18 18 18 18 18 18 18 18 18 17 17 17 17 17 17 17 17 17 18 18 18 18 18 18 18
20 19 19 19 18 18 19 19 20 21 21 21 21 20 19 19 19 19 18 18 18 18 18 18 18 18 17 17 17 17 17 17 17 17 17 16 17 18 18 18 18 18 18
19 18 18 18 17 17 17 18 19 20 20 21 21 20 19 19 19 19 18 18 18 18 18 18 17 17 17 17 17 17 17 17 17 17 17 16 17 17 17 18 18 18 18
18 17 17 16 16 16 16 17 18 18 19 20 20 20 19 19 19 18 18 18 18 17 17 17 17 17 17 17 17 17 16 16 16 16 16 16 16 16 16 17 17 17 17
16 16 16 15 15 15 16 16 17 17 18 19 19 19 19 18 18 18 18 17 17 17 17 17 17 17 17 17 16 16 16 16 16 16 16 16 16 16 16 16 16 17 17
15 15 14 14 14 14 15 15 16 16 17 17 18 18 18 17 17 17 17 17 17 17 17 16 16 16 16 16 16 16 16 16 16 16 16 16 16 16 16 16 16 16 16
13 13 13 13 13 14 14 14 15 15 15 16 16 16 16 16 16 15 15 16 16 16 16 16 16 16 16 16 16 16 16 16 16 16 15 15 15 15 15 15 15 15 16
12 12 13 13 13 13 13 13 14 14 14 14 15 15 15 15 14 14 14 14 14 14 15 15 15 15 16 16 16 16 16 15 15 15 15 15 15 15 15 15 15 15 15
12 12 12 12 12 13 13 13 13 13 13 14 14 14 14 14 14 14 14 14 14 14 14 15 15 16 16 16 16 16 16 15 15 15 15 15 15 14 14 14 14 14 14
11 11 12 12 12 12 13 13 13 13 13 13 13 13 13 13 13 13 13 14 14 14 15 15 15 15 16 16 16 16 15 15 15 15 15 15 14 14 14 14 14 14 14
11 11 12 12 12 12 12 12 13 13 13 13 13 13 13 13 13 14 14 14 14 15 15 15 15 16 16 16 16 16 15 15 15 15 15 15 15 14 14 14 14 14 14
12 12 12 12 12 12 12 12 12 13 13 13 13 13 13 13 14 14 14 14 15 15 15 15 15 16 16 16 16 16 15 15 15 15 15 15 15 15 14 14 14 14 14
13 13 13 13 13 13 12 12 12 13 13 13 13 13 13 13 14 14 14 14 15 15 15 15 15 16 16 16 16 16 16 15 16 15 15 15 15 15 14 14 14 14 14
14 14 14 14 14 13 13 13 13 13 13 13 13 13 13 13 14 14 14 14 15 15 15 15 15 15 15 16 16 16 15 16 16 16 15 15 15 15 15 14 14 14 14
14 15 15 15 14 14 14 13 13 12 12 12 12 12 13 13 13 13 14 14 14 14 14 15 15 15 15 15 16 15 15 15 15 15 15 15 15 15 15 15 14 14 14
15 15 15 15 15 14 14 13 13 12 12 12 12 12 12 12 12 12 13 13 13 13 14 14 14 14 14 15 15 15 15 15 15 15 15 15 15 15 15 15 14 14 14
15 15 15 15 15 15 15 14 13 12 12 12 12 12 12 12 12 12 12 12 12 12 12 13 13 13 13 14 14 14 15 15 15 15 15 15 14 14 14 14 14 14 14
15 15 15 15 15 15 15 14 13 13 12 12 12 11 11 11 12 12 12 12 11 11 12 12 12 12 12 13 13 14 14 14 14 14 14 14 14 14 15 14 14 14 14
15 15 15 15 15 15 15 14 14 13 12 12 12 12 12 12 12 12 11 11 11 11 11 11 11 11 12 12 12 13 13 13 13 13 13 13 14 14 14 14 14 14 14
15 15 15 15 15 15 15 15 14 13 12 12 12 12 12 12 12 12 11 11 11 11 11 11 11 11 11 11 11 12 12 12 12 12 12 13 13 14 14 14 14 14 14
15 15 15 15 15 15 15 15 14 13 13 13 12 12 12 12 11 11 11 11 10 10 10 10 10 10 10 10 11 11 11 12 12 12 12 12 13 13 13 13 13 13 13
15 15 15 15 15 15 15 15 14 14 13 13 13 12 12 11 11 11 11 11 10 10 10 10 10 10 10 10 10 10 11 11 11 11 12 12 12 13 13 13 13 13 13
15 15 15 15 15 15 15 15 14 14 14 14 13 13 12 11 11 11 11 11 11 10 10 10 10 10 10 10 10 10 10 10 10 11 11 11 12 12 12 12 12 12 12
15 15 15 15 15 16 15 15 15 14 15 14 13 13 12 12 11 11 11 11 10 10 10 10 10 10 10 9 9 10 10 10 10 10 11 11 11 11 11 11 11 11 11
15 15 15 15 15 15 15 15 15 14 14 14 13 13 12 12 11 11 11 11 10 10 10 10 10 10 9 9 9 9 9 10 10 10 10 10 10 10 10 10 10 10 10
Wind_Speed
10 11 11 10 10 10 10 8 4 6 6 6 7 7 6 5 5 4 5 6 3 4 5 5 3 3 3 2 1 1 1 1 2 2 3 3 4 5 4 2 2 3 9
11 10 10 11 12 11 11 11 9 5 6 6 7 7 8 6 6 5 4 6 5 4 4 5 4 3 2 2 2 1 0 1 2 1 1 3 4 4 3 3 3 3 4
11 11 11 11 11 12 12 12 12 10 7 7 6 7 7 6 6 5 4 3 4 4 3 3 4 4 4 4 4 4 5 4 4 4 3 3 4 2 4 5 5 4 3
10 10 10 11 12 12 12 14 14 12 8 5 7 9 8 7 6 6 5 5 4 4 4 3 3 4 4 5 6 6 5 6 6 5 5 5 4 3 2 3 3 5 5
12 12 12 11 12 12 12 12 13 12 9 5 4 8 8 7 6 7 7 5 4 3 3 2 2 3 3 5 6 5 5 6 6 5 4 4 3 4 4 3 4 2 2
14 13 13 11 11 11 11 11 11 11 10 6 1 4 7 8 8 8 8 5 4 3 2 1 0 2 2 3 4 4 5 5 6 5 4 3 3 3 3 4 4 3 3
16 15 14 13 12 12 12 12 11 10 10 9 7 5 5 6 6 7 7 6 4 3 3 1 1 2 2 2 1 2 3 5 5 5 4 3 3 2 2 2 3 3 3
16 15 14 13 12 13 12 12 11 10 10 9 9 8 8 6 5 6 5 5 4 2 1 1 2 2 2 1 1 0 3 3 3 4 4 3 3 3 3 3 3 2 3
16 15 14 13 12 12 11 11 11 10 10 9 8 8 7 7 6 6 5 4 3 2 1 3 3 3 3 2 1 2 3 2 1 1 1 2 2 2 3 3 4 4 4
15 14 13 13 12 11 10 11 11 10 9 9 7 7 7 6 5 5 4 3 1 1 1 3 5 5 5 4 2 1 1 2 0 1 1 3 2 2 3 3 3 4 5
15 13 12 11 10 11 11 11 10 9 9 8 7 7 6 6 6 5 4 3 1 0 2 4 4 5 7 7 5 3 3 2 3 4 5 5 4 2 3 3 3 4 4
13 12 11 11 10 11 10 10 9 9 8 7 6 6 6 5 5 5 4 3 2 3 4 4 5 5 6 6 7 6 4 4 4 3 2 3 3 4 3 3 4 4 4
11 10 9 9 9 8 8 8 8 7 7 6 5 5 5 5 4 3 3 3 4 5 5 5 6 4 3 4 5 6 6 6 5 4 2 2 1 2 2 3 3 3 3
8 8 8 7 6 6 6 6 6 5 5 5 5 5 4 3 3 3 4 4 4 5 6 5 4 2 1 1 1 3 5 4 4 3 3 1 3 4 3 1 1 0 0
8 7 7 6 6 6 6 6 6 5 5 5 6 6 4 4 3 3 4 5 5 5 6 6 6 6 5 7 7 6 3 3 2 2 3 4 7 6 4 3 3 3 1
10 8 7 7 7 7 7 7 7 7 7 8 7 7 6 6 6 6 6 6 7 8 8 9 9 10 9 12 13 9 7 6 5 3 1 6 7 7 6 4 3 2 1
9 9 9 8 8 8 7 8 8 7 8 8 8 8 8 8 8 8 8 8 8 9 9 9 9 9 11 15 14 12 7 6 6 5 3 1 4 7 6 7 7 6 6
9 9 8 8 8 8 7 7 8 9 8 8 8 8 8 8 7 8 8 8 7 7 7 8 7 7 10 16 15 14 7 6 6 5 5 3 1 2 1 1 3 4 5
7 8 8 7 7 8 8 7 8 8 8 8 8 8 8 8 8 8 7 6 6 6 6 6 7 7 8 14 16 14 6 5 5 4 3 4 5 7 5 3 3 3 3
6 7 7 7 7 6 6 7 8 8 8 8 7 7 7 7 8 8 8 6 6 6 5 5 5 6 7 11 15 14 6 6 5 4 4 7 6 6 5 4 4 4 3
6 7 7 6 5 5 5 7 7 7 6 6 6 7 7 7 8 7 7 7 6 6 6 6 5 5 6 8 12 13 6 6 5 4 4 5 7 6 5 5 4 3 3
6 6 6 6 5 4 5 5 5 4 4 4 4 5 6 7 7 6 7 7 7 7 7 7 6 6 6 8 10 11 9 7 5 5 4 4 7 6 6 4 4 4 3
6 6 6 6 6 5 5 4 3 2 3 3 3 4 6 6 7 7 7 7 7 6 6 6 6 6 7 9 14 12 10 9 4 3 5 5 6 4 3 5 4 4 3
6 6 7 7 7 5 4 4 3 2 1 4 4 6 6 6 7 6 6 6 7 7 7 7 7 7 7 8 9 8 7 7 5 3 4 5 7 6 5 4 4 4 4
6 6 6 6 7 5 5 5 5 5 2 4 5 6 6 5 6 6 6 6 6 5 5 5 6 6 7 9 11 8 7 6 5 4 4 5 5 6 6 5 6 5 5
7 6 6 6 7 7 6 6 5 5 5 5 6 4 4 4 5 6 5 8 7 8 9 9 8 5 7 10 11 12 13 13 11 7 7 7 7 7 7 7 7 7 7
Wind_Direction
19 25 11 359 348 336 325 311 259 209 196 174 172 167 168 162 158 163 170 181 176 130 116 125 122 96 107 124 275 348 323 298 314 315 324 306 258 252 207 210 251 209 156
6 12 7 1 355 349 339 326 316 271 218 198 188 177 168 168 162 167 161 161 168 161 143 141 144 144 147 180 235 251 288 293 275 233 257 307 316 289 250 202 211 267 162
3 1 1 358 351 348 345 335 322 308 267 210 189 186 168 162 159 161 149 140 146 149 151 152 159 174 177 197 216 221 214 226 254 249 205 196 234 281 292 237 201 217 207
6 0 1 358 352 349 346 339 333 323 307 249 194 179 174 171 168 160 152 151 151 153 159 169 175 193 195 200 215 220 215 215 231 249 243 225 209 186 282 303 244 207 205
5 3 3 359 354 354 349 344 339 335 332 318 202 184 179 167 157 147 144 142 137 134 152 174 195 216 207 213 223 228 213 212 221 230 239 246 256 232 212 261 296 286 210
360 3 3 3 1 1 356 353 352 353 353 357 21 170 166 152 147 137 135 124 112 94 80 85 270 273 243 229 228 216 215 219 226 234 231 225 228 234 225 226 248 267 264
1 3 7 8 7 3 1 1 4 9 10 25 37 69 104 119 129 125 123 122 116 110 112 136 214 263 260 245 218 216 223 222 221 225 230 221 225 229 220 225 243 248 270
1 5 11 11 6 5 7 9 12 20 25 37 50 61 69 77 90 101 110 113 112 115 133 184 223 232 245 271 235 257 259 242 227 224 223 209 232 225 210 207 213 240 255
3 7 12 12 7 8 12 14 22 30 34 43 55 63 71 79 87 89 91 97 106 137 187 214 219 210 200 246 259 190 265 235 247 272 277 227 232 230 233 217 196 195 223
5 10 11 10 8 11 15 20 27 33 36 39 48 60 60 67 76 82 83 89 113 154 201 226 221 201 184 199 225 291 336 358 263 143 287 268 245 236 232 229 222 206 206
4 8 10 9 11 19 22 21 22 29 34 39 46 50 52 53 62 68 69 63 34 344 273 264 250 205 191 190 170 217 215 255 266 213 213 221 220 216 229 226 223 220 204
4 7 9 10 16 20 19 17 18 25 30 34 40 44 44 46 43 34 25 10 324 295 278 269 269 236 193 182 172 191 190 224 258 270 243 224 194 201 220 216 225 223 215
3 4 7 12 15 15 13 15 16 21 25 27 31 38 34 31 22 5 339 310 292 281 271 266 266 255 199 192 178 180 200 217 221 221 240 268 160 187 200 201 217 219 227
5 9 8 11 16 20 21 16 16 19 31 35 34 34 27 9 349 336 319 300 289 284 284 277 280 280 228 236 233 215 208 223 222 195 188 184 77 61 39 55 41 67 254
12 13 10 13 24 31 34 30 34 34 39 42 37 27 22 9 1 356 343 336 343 347 350 1 10 19 26 27 18 357 332 291 260 225 186 126 110 101 80 61 38 31 6
13 9 17 20 30 36 41 38 40 44 45 44 38 31 34 31 27 25 25 24 25 20 18 23 38 41 33 24 22 8 343 333 321 298 173 147 154 155 159 166 178 166 47
11 5 17 26 28 31 45 53 46 45 46 49 44 38 37 37 34 29 26 35 44 37 33 32 40 46 34 24 14 5 334 308 307 313 309 230 156 160 187 199 209 216 208
10 2 7 24 28 24 40 56 59 49 41 41 47 43 37 35 35 36 36 36 42 47 43 34 37 45 35 21 9 354 320 291 292 299 303 307 130 142 82 167 222 213 186
5 355 357 17 27 21 29 50 60 56 42 34 40 42 37 31 28 31 39 38 37 43 55 40 33 36 32 20 10 359 325 324 312 309 346 30 62 52 43 2 349 51 107
5 351 353 13 17 13 22 44 54 53 44 31 31 36 36 39 32 23 21 27 32 30 50 52 39 38 31 23 16 8 354 353 348 352 42 64 74 69 45 15 24 35 33
12 358 352 0 354 360 23 52 52 55 55 40 33 33 30 50 49 27 21 23 26 25 27 37 35 39 36 22 19 15 10 354 349 8 37 52 51 56 43 30 48 60 2
14 4 348 340 336 11 30 54 64 62 74 65 47 51 51 45 46 41 34 30 22 28 28 22 20 23 30 23 9 8 9 1 6 20 30 34 29 34 35 47 63 36 9
11 355 342 344 353 23 31 40 70 57 100 83 60 72 77 71 50 44 40 33 28 27 24 19 15 17 24 13 5 2 5 6 17 34 38 31 28 29 56 59 42 26 43
359 354 7 5 344 351 31 48 40 327 127 110 79 77 73 76 70 49 45 44 29 22 17 16 13 12 21 14 2 356 2 9 17 23 43 48 51 55 61 60 50 49 54
358 11 17 347 332 358 42 55 24 341 15 93 87 84 81 86 89 73 46 50 59 41 24 8 9 16 14 3 1 10 10 6 12 12 35 47 51 49 47 49 48 47 47
6 6 3 350 353 12 35 52 27 349 21 68 71 72 87 97 121 123 97 56 66 62 58 47 37 45 23 7 15 22 25 29 35 50 50 48 46 48 49 50 48 46 43
Height
1512 1511 1511 1510 1510 1509 1509 1510 1511 1511 1513 1514 1515 1517 1520 1522 1525 1527 1530 1532 1535 1537 1538 1540 1543 1544 1546 1548 1550 1551 1552 1554 1555 1556 1556 1557 1557 1558 1558 1559 1559 1560 1558
1513 1512 1511 1510 1509 1508 1507 1506 1507 1508 1508 1509 1510 1511 1514 1517 1520 1523 1526 1528 1531 1533 1535 1537 1539 1541 1543 1545 1547 1548 1549 1551 1552 1553 1554 1555 1556 1555 1556 1556 1557 1558 1558
1515 1514 1512 1511 1509 1507 1505 1504 1503 1503 1504 1504 1505 1507 1508 1511 1515 1518 1521 1524 1527 1529 1531 1533 1535 1538 1540 1542 1544 1545 1546 1547 1549 1550 1552 1552 1552 1553 1553 1554 1554 1555 1556
1515 1514 1512 1510 1508 1506 1503 1501 1499 1498 1498 1499 1499 1500 1501 1504 1507 1512 1515 1519 1522 1525 1527 1530 1532 1534 1536 1538 1540 1541 1542 1543 1544 1546 1548 1549 1550 1551 1550 1551 1552 1553 1554
1516 1514 1512 1510 1507 1504 1501 1499 1496 1494 1494 1494 1494 1495 1496 1498 1503 1507 1510 1514 1517 1520 1523 1526 1528 1530 1532 1534 1536 1537 1538 1540 1541 1542 1544 1545 1546 1547 1548 1549 1550 1550 1551
1517 1514 1511 1508 1506 1502 1499 1496 1493 1491 1490 1490 1490 1491 1493 1495 1499 1502 1505 1509 1512 1515 1518 1522 1524 1527 1528 1530 1532 1534 1535 1537 1538 1539 1540 1541 1542 1543 1544 1545 1546 1547 1548
1518 1514 1511 1508 1505 1501 1498 1495 1492 1490 1488 1488 1488 1489 1491 1493 1496 1498 1500 1504 1508 1511 1514 1517 1521 1523 1525 1527 1529 1531 1533 1534 1535 1536 1537 1538 1538 1540 1541 1541 1542 1543 1544
1518 1515 1512 1509 1505 1502 1499 1495 1492 1490 1489 1488 1488 1489 1490 1492 1494 1496 1499 1502 1505 1509 1511 1514 1518 1521 1523 1525 1527 1529 1531 1532 1532 1533 1533 1534 1535 1536 1537 1538 1539 1539 1540
1520 1517 1514 1510 1507 1504 1500 1497 1494 1492 1490 1489 1489 1490 1491 1492 1494 1496 1498 1501 1503 1507 1509 1513 1516 1519 1521 1524 1526 1527 1528 1529 1530 1530 1531 1531 1531 1532 1533 1533 1535 1536 1536
1522 1519 1515 1512 1509 1506 1503 1500 1497 1495 1493 1492 1492 1492 1492 1494 1495 1497 1499 1502 1504 1506 1509 1512 1515 1518 1520 1522 1524 1525 1526 1527 1528 1528 1528 1528 1529 1529 1529 1530 1530 1531 1532
1525 1521 1516 1513 1511 1508 1505 1503 1500 1498 1497 1496 1495 1495 1495 1496 1497 1499 1501 1502 1504 1507 1509 1511 1514 1516 1518 1521 1522 1523 1525 1525 1526 1526 1526 1526 1527 1527 1527 1526 1527 1527 1528
1529 1524 1520 1516 1513 1510 1508 1506 1504 1502 1501 1500 1499 1499 1499 1500 1501 1501 1503 1504 1505 1507 1509 1511 1513 1516 1518 1520 1521 1522 1523 1523 1524 1525 1526 1526 1525 1525 1525 1524 1524 1524 1524
1532 1528 1524 1520 1517 1514 1512 1509 1507 1505 1504 1503 1503 1503 1503 1503 1504 1504 1505 1506 1507 1509 1510 1511 1512 1515 1517 1518 1520 1521 1521 1522 1523 1524 1524 1525 1524 1524 1523 1522 1522 1522 1522
1536 1532 1528 1525 1522 1519 1516 1513 1511 1509 1508 1507 1506 1506 1506 1506 1506 1507 1507 1508 1508 1509 1510 1510 1511 1513 1514 1516 1517 1519 1520 1521 1522 1522 1523 1523 1523 1522 1522 1521 1521 1520 1520
1539 1536 1533 1530 1527 1524 1521 1518 1515 1513 1511 1510 1509 1508 1508 1508 1508 1508 1508 1508 1508 1508 1508 1508 1509 1510 1511 1512 1514 1515 1517 1519 1520 1520 1521 1521 1521 1521 1520 1520 1520 1519 1519
1543 1539 1537 1534 1531 1528 1525 1523 1520 1518 1515 1513 1512 1511 1510 1509 1509 1509 1508 1508 1508 1508 1508 1508 1508 1508 1508 1509 1511 1513 1514 1516 1517 1518 1519 1519 1519 1519 1519 1519 1520 1519 1519
1546 1543 1540 1538 1535 1532 1529 1527 1524 1522 1520 1518 1516 1515 1513 1512 1511 1510 1510 1509 1508 1508 1507 1507 1507 1507 1507 1507 1508 1509 1511 1512 1514 1515 1516 1516 1517 1517 1517 1518 1519 1519 1518
1549 1546 1543 1541 1539 1536 1533 1531 1528 1526 1524 1522 1520 1519 1517 1516 1514 1513 1512 1511 1510 1509 1508 1507 1507 1506 1506 1506 1506 1506 1507 1508 1510 1511 1512 1513 1514 1515 1516 1517 1518 1518 1518
1552 1549 1547 1544 1542 1540 1537 1535 1532 1530 1528 1526 1524 1522 1520 1519 1517 1516 1515 1513 1512 1511 1510 1509 1508 1507 1506 1505 1504 1504 1504 1505 1507 1508 1509 1510 1511 1513 1514 1516 1517 1517 1517
1554 1551 1549 1547 1544 1542 1540 1537 1535 1533 1531 1529 1528 1526 1523 1522 1520 1518 1517 1516 1514 1513 1512 1511 1509 1508 1506 1505 1504 1503 1503 1504 1504 1505 1506 1507 1509 1511 1512 1514 1515 1515 1516
1555 1552 1550 1548 1546 1544 1542 1539 1538 1536 1534 1532 1530 1528 1526 1524 1522 1520 1519 1517 1516 1515 1514 1513 1511 1510 1508 1506 1505 1504 1503 1503 1503 1504 1504 1505 1507 1508 1510 1512 1513 1514 1515
1555 1553 1550 1548 1547 1545 1543 1541 1539 1538 1536 1534 1532 1531 1529 1527 1525 1523 1521 1519 1518 1517 1516 1515 1514 1512 1510 1507 1505 1504 1503 1503 1503 1503 1504 1505 1506 1507 1509 1510 1512 1513 1514
1555 1553 1551 1549 1547 1546 1544 1542 1541 1539 1538 1536 1535 1533 1531 1529 1527 1525 1523 1521 1520 1519 1518 1517 1515 1513 1511 1508 1506 1505 1504 1503 1503 1503 1503 1504 1505 1507 1508 1509 1511 1512 1513
1555 1553 1551 1549 1548 1546 1545 1543 1542 1540 1539 1538 1537 1535 1534 1532 1530 1528 1526 1524 1523 1521 1520 1519 1517 1515 1513 1510 1507 1506 1505 1504 1504 1504 1505 1505 1506 1507 1508 1509 1511 1512 1513
1556 1554 1552 1550 1548 1547 1546 1544 1542 1541 1541 1540 1538 1537 1536 1534 1533 1531 1529 1528 1526 1524 1523 1521 1519 1517 1514 1512 1510 1509 1507 1506 1506 1506 1507 1507 1508 1509 1510 1511 1512 1513 1514
1557 1555 1553 1551 1550 1548 1547 1545 1543 1542 1542 1541 1540 1539 1538 1536 1535 1534 1533 1531 1530 1528 1527 1525 1522 1520 1518 1516 1514 1512 1510 1510 1510 1510 1510 1510 1511 1512 1513 1513 1514 1515 1515